Asyut, Egypt

2:22 AM EET on July 28, 2017 (GMT +0200)
Asyut

Weather History for HEAT - January, 2013

Change the Weather History Date:

Sunday, January 6, 2013

  Actual Average Record
Temperature  
Mean Temperature 54 °F -  
Max Temperature 66 °F 68 °F - ()
Min Temperature 42 °F 41 °F - ()
Degree Days  
Heating Degree Days 11    
Growing Degree Days 4 (Base 50)    
Moisture  
Dew Point 42 °F    
Average Humidity 63    
Maximum Humidity 93    
Minimum Humidity 30    
Precipitation  
Precipitation 0.00 in 0.00 in - ()
Sea Level Pressure  
Sea Level Pressure 30.03 in    
Wind  
Wind Speed 10 mph ()    
Max Wind Speed 23 mph    
Max Gust Speed -    
Visibility 6.1 miles    
Events      
T = Trace of Precipitation, MM = Missing Value Source: Averaged Metar Reports

Daily Weather History Graph

Daily Weather History Graph

Search for Another Location

Airport or City:

Trip Planner

Search our weather history database for the weather conditions in past years. The results will help you decide how hot, cold, wet, or windy it might be!

Date:

Astronomy

Jan. 06, 2013 Rise Set
Actual Time 6:46 AM EET 5:17 PM EET
Civil Twilight 6:21 AM EET 5:42 PM EET
Nautical Twilight 5:52 AM EET 6:11 PM EET
Astronomical Twilight 5:23 AM EET 6:39 PM EET
Moon 12:51 AM EET (1/6) 12:19 PM EET (1/6)
Length of Visible Light 11h 21m
Length of Day
10h 31m
Last Quarter, 36% of the Moon is Illuminated
Jan 6
Last Quarter
Jan 11
New
Jan 19
First Quarter
Jan 27
Full
Feb 3
Last Quarter

Hourly Weather History & Observations

Time (EET) Temp. Windchill Dew Point Humidity Pressure Visibility Wind Dir Wind Speed Gust Speed Precip Events Conditions
2:00 AM 50 °F - 40 °F 59% 30.06 in 6 mi West 8.1 mph - -  
2:00 AM 50.0 °F - 41.0 °F 71% 30.04 in - West 8.1 mph - N/A   Clear
3:00 AM 48.2 °F - 41.0 °F 76% 30.04 in - WSW 9.2 mph - N/A   Clear
4:00 AM 48.2 °F - 41.0 °F 76% 30.01 in - WSW 8.1 mph - N/A   Clear
5:00 AM 44.6 °F 39.7 °F 41.0 °F 87% 30.01 in - WSW 9.2 mph - N/A   Clear
6:00 AM 44.6 °F 39.7 °F 41.0 °F 87% 30.04 in - SW 9.2 mph - N/A   Clear
7:00 AM 42.8 °F - 41.0 °F 93% 30.04 in - SW 2.3 mph - N/A   Clear
8:00 AM 45 °F - 40 °F 77% 30.07 in 6 mi West 2.3 mph - -  
8:00 AM 44.6 °F - 41.0 °F 87% 30.06 in - West 2.3 mph - N/A   Clear
9:00 AM 50.0 °F - 41.0 °F 71% 30.09 in - West 11.5 mph - N/A   Clear
10:00 AM 53.6 °F - 41.0 °F 62% 30.09 in - West 16.1 mph - N/A   Clear
11:00 AM 59.0 °F - 41.0 °F 51% 30.06 in - West 16.1 mph - N/A   Clear
12:00 PM 64.4 °F - 41.0 °F 42% 30.04 in - West 17.3 mph - N/A   Clear
1:00 PM 64.4 °F - 42.8 °F 45% 30.04 in - West 20.7 mph - N/A   Clear
2:00 PM 66 °F - 42 °F 30% 29.98 in 6 mi West 23.0 mph - -  
2:00 PM 66.2 °F - 42.8 °F 43% 30.01 in - SW 23.0 mph - N/A   Clear
3:00 PM 66.2 °F - 42.8 °F 43% 29.98 in 6.2 mi West 23.0 mph - N/A   Scattered Clouds
4:00 PM 66.2 °F - 41.0 °F 40% 29.98 in 6.2 mi West 23.0 mph - N/A   Scattered Clouds
5:00 PM 62.6 °F - 44.6 °F 52% 29.98 in 6.2 mi West 20.7 mph - N/A   Scattered Clouds
6:00 PM 59.0 °F - 41.0 °F 51% 29.98 in 6.2 mi West 17.3 mph - N/A   Scattered Clouds
7:00 PM 57.2 °F - 44.6 °F 63% 30.01 in - West 11.5 mph - N/A   Clear
8:00 PM 56 °F - 45 °F 57% 30.02 in 6 mi WSW 9.2 mph - -  
8:00 PM 55.4 °F - 44.6 °F 67% 30.01 in - WSW 9.2 mph - N/A   Clear
9:00 PM 53.6 °F - 42.8 °F 67% 30.01 in - WSW 9.2 mph - N/A   Clear
10:00 PM 51.8 °F - 42.8 °F 71% 30.01 in - WSW 10.4 mph - N/A   Clear
11:00 PM 51.8 °F - 42.8 °F 71% 30.01 in - SW 10.4 mph - N/A   Clear